Clemson, SC

3:30 AM EDT on July 27, 2017 (GMT -0400)
Oconee County Regional

Weather History for KCEU - February, 2014

Change the Weather History Date:

Friday, February 14, 2014

  Actual Average Record
Temperature  
Mean Temperature 46 °F -  
Max Temperature 55 °F 54 °F 80 °F (1938)
Min Temperature 36 °F 31 °F 16 °F (1968)
Degree Days  
Heating Degree Days 20    
Moisture  
Dew Point 28 °F    
Average Humidity 51    
Maximum Humidity 68    
Minimum Humidity 33    
Precipitation  
Precipitation 0.01 in - - ()
Sea Level Pressure  
Sea Level Pressure 29.80 in    
Wind  
Wind Speed 8 mph (WSW)    
Max Wind Speed 14 mph    
Max Gust Speed 23 mph    
Visibility 10 miles    
Events Rain    
Averages and records for this station are not official NWS values.
T = Trace of Precipitation, MM = Missing Value Source: NWS Daily Summary

Daily Weather History Graph

Daily Weather History Graph

Search for Another Location

Airport or City:

Trip Planner

Search our weather history database for the weather conditions in past years. The results will help you decide how hot, cold, wet, or windy it might be!

Date:

Astronomy

Feb. 14, 2014 Rise Set
Actual Time 7:18 AM EST 6:13 PM EST
Civil Twilight 6:52 AM EST 6:39 PM EST
Nautical Twilight 6:22 AM EST 7:09 PM EST
Astronomical Twilight 5:53 AM EST 7:38 PM EST
Moon 6:14 PM EST (2/14) 6:45 AM EST (2/14)
Length of Visible Light 11h 47m
Length of Day
10h 55m
Full, 100% of the Moon is Illuminated
Feb 14
Full
Feb 14
Full
Feb 22
Last Quarter
Mar 1
New
Mar 8
First Quarter

Hourly Weather History & Observations

Time (EST) Temp. Windchill Dew Point Humidity Pressure Visibility Wind Dir Wind Speed Gust Speed Precip Events Conditions
12:54 AM 37.9 °F 30.5 °F 23.0 °F 55% 29.80 in 10.0 mi WSW 11.5 mph - N/A   Clear
1:54 AM 37.9 °F 29.6 °F 23.0 °F 55% 29.81 in 10.0 mi WSW 13.8 mph 19.6 mph N/A   Clear
2:54 AM 37.9 °F 30.0 °F 24.1 °F 57% 29.81 in 10.0 mi WSW 12.7 mph - N/A   Clear
3:54 AM 37.0 °F 31.6 °F 25.0 °F 62% 29.81 in 10.0 mi WSW 6.9 mph - N/A   Clear
4:54 AM 37.0 °F 32.4 °F 26.1 °F 65% 29.81 in 10.0 mi WSW 5.8 mph - N/A   Clear
5:54 AM 37.0 °F 31.6 °F 26.1 °F 65% 29.83 in 10.0 mi WSW 6.9 mph - N/A   Clear
6:54 AM 37.0 °F 29.8 °F 25.0 °F 62% 29.84 in 10.0 mi WSW 10.4 mph - N/A   Clear
7:54 AM 36.0 °F 29.6 °F 26.1 °F 67% 29.86 in 10.0 mi SW 8.1 mph - N/A   Clear
8:54 AM 39.9 °F 35.1 °F 27.0 °F 60% 29.86 in 10.0 mi WSW 6.9 mph - N/A   Clear
9:54 AM 46.0 °F 43.1 °F 26.1 °F 46% 29.84 in 10.0 mi WSW 5.8 mph - N/A   Clear
10:54 AM 50.0 °F - 27.0 °F 41% 29.84 in 10.0 mi Variable 4.6 mph - N/A   Clear
11:54 AM 52.0 °F - 28.0 °F 40% 29.85 in 10.0 mi SW 5.8 mph 16.1 mph N/A   Clear
12:54 PM 52.0 °F - 28.0 °F 40% 29.84 in 10.0 mi SW 8.1 mph 17.3 mph N/A   Unknown
1:54 PM 55.0 °F - 28.0 °F 35% 29.81 in 10.0 mi WSW 9.2 mph - N/A   Clear
2:54 PM 55.9 °F - 28.0 °F 34% 29.78 in 10.0 mi WSW 10.4 mph 18.4 mph N/A   Clear
3:54 PM 55.9 °F - 27.0 °F 33% 29.77 in 10.0 mi SW 9.2 mph 23.0 mph N/A   Clear
4:54 PM 54.0 °F - 28.0 °F 37% 29.78 in 10.0 mi Variable 6.9 mph - N/A   Clear
5:54 PM 52.0 °F - 28.9 °F 41% 29.77 in 10.0 mi SSW 3.5 mph - N/A   Clear
6:54 PM 51.1 °F - 30.0 °F 44% 29.77 in 10.0 mi Calm Calm - N/A   Clear
7:54 PM 48.9 °F - 30.9 °F 50% 29.75 in 10.0 mi Calm Calm - N/A   Clear
8:54 PM 48.9 °F - 30.9 °F 50% 29.74 in 10.0 mi Calm Calm - N/A   Scattered Clouds
9:54 PM 46.0 °F 44.8 °F 32.0 °F 58% 29.75 in 10.0 mi West 3.5 mph - N/A   Overcast
10:54 PM 46.0 °F - 32.0 °F 58% 29.69 in 10.0 mi Calm Calm - 0.00 in   Overcast
11:54 PM 45.0 °F - 35.1 °F 68% 29.69 in 8.0 mi Calm Calm - 0.01 in Rain Light Rain